Track COSMOS 2477 (GLONASS) now! COSMOS 2477 (GLONASS) is classified as:
1 37868U 11064B 22230.75128385 -.00000036 00000-0 00000+0 0 9991 2 37868 64.6627 120.3607 0018606 237.5370 74.7129 2.13101778 83968